USA 153

Last updated on Thu Nov 21 2024 00:02:40 GMT+0000 (Coordinated Universal Time)

1 26575U 00065A 24325.57725606 -.00000325 00000+0 00000+0 0 9999 2 26575 10.6282 39.8831 0003017 232.4794 130.1169 1.00271669 27181
UTC large
Height (km)
Speed (km/s)
/
Latitude / Longitude
Inclination (degrees)
Orbital Period (minutes)
Azimuth
Elevation
Range (km)
Doppler Factor

Next 0 passes for location: London (51.5072 / 0.1276)

Sorry there are no passes over London.